Regional Weather Roundup
Issued by NWS

Home | Current Version | Previous Version | Text Only | Print | Product List | Glossary Off
Versions: 1 2 3 4 5 6 7 8 9 10 11 12 13 14 15 16 17 18 19 20 21 22 23 24 25 26 27 28 29 30 31 32 33 34 35 36 37 38 39 40 41 42 43 44 45 46 47 48 49 50

000
ASUS43 KFSD 301102
RWRSD

WEATHER ROUNDUP FOR SOUTH DAKOTA
NATIONAL WEATHER SERVICE SIOUX FALLS SD
600 AM CDT WED JUL 30 2014

NOTE: "FAIR" INDICATES FEW OR NO CLOUDS BELOW 12,000 FEET WITH NO
SIGNIFICANT WEATHER AND/OR OBSTRUCTIONS TO VISIBILITY.


SDZ001>005-009-010-012>017-301200-
NORTHWEST AND NORTH CENTRAL SOUTH DAKOTA

CITY           SKY/WX    TMP DP  RH WIND       PRES   REMARKS
BUFFALO          N/A     53  49  86 W3        30.12R
FAITH            N/A     57  51  80 SE13      30.16S
MOBRIDGE       CLOUDY    61  56  83 E8        30.13S
$$

SDZ012>016-024>037-041>051-057-063-072>074-301200-
SOUTHWEST AND SOUTH CENTRAL SOUTH DAKOTA

CITY           SKY/WX    TMP DP  RH WIND       PRES   REMARKS
RAPID CTY ARPT CLEAR     50  49  96 NW3       30.20S
PIERRE         MOCLDY    60  59  96 E7        30.14S
CUSTER         PTCLDY    51  46  83 NW5       30.32S
ELLSWORTH AFB  CLEAR     56  52  85 NW8       30.20R
PHILIP         CLEAR     52  48  86 CALM      30.18R
PINE RIDGE     MOCLDY    46  45  96 CALM      30.24R
WINNER         FAIR      57  49  74 W6        30.16S
$$

SDZ004>011-016>023-039-040-301200-
NORTHEAST SOUTH DAKOTA

CITY           SKY/WX    TMP DP  RH WIND       PRES   REMARKS
ABERDEEN       CLEAR     49  47  93 CALM      30.15S
WATERTOWN      CLEAR     51  49  92 CALM      30.16R
SISSETON         N/A     52  51  97 W3        30.13S
$$

SDZ017-020-022-023-036>040-048>070-301200-
SOUTHEAST SOUTH DAKOTA

CITY           SKY/WX    TMP DP  RH WIND       PRES   REMARKS
SIOUX FALLS    CLEAR     54  51  90 CALM      30.15S
HURON          FOG       49  48  97 CALM      30.15R VSB 1/2
CHAMBERLAIN    CLEAR     51  48  87 CALM      30.16S
MITCHELL       CLEAR     52  50  93 CALM      30.16R
YANKTON        CLEAR     54  52  94 CALM      30.15R
$$

ABBREVIATIONS USED IN REMARKS
   TC - TEMPERATURE IN CELSIUS
  WCI - WIND CHILL INDEX
   HX - HEAT INDEX
  VSB - VISIBILITY



USA.gov is the U.S. government's official web portal to all federal, state and local government web resources and services.